This is the latest recevied weather packets stored in our database for station/object K2YYD-2. If no packets are shown the sender has not sent any weather packets the latest 1 day(s).
| Time | Temp. | Humidity | Pressure | Rain* | Wind** | Luminosity | Snow |
|---|---|---|---|---|---|---|---|
| 1777983282 | 16.67° C | 76% | 1007.7 hPa | 0 mm | 0.89 m/s, 294° | 287 W/m² | - |
| 1777983161 | 16.11° C | 76% | 1007.7 hPa | 0 mm | 0.89 m/s, 170° | 324 W/m² | - |
| 1777983041 | 16.11° C | 77% | 1007.7 hPa | 0 mm | 0.89 m/s, 166° | 316 W/m² | - |
| 1777982921 | 16.11° C | 77% | 1007.8 hPa | 0 mm | 0.89 m/s, 159° | 293 W/m² | - |
| 1777982801 | 15.56° C | 78% | 1007.8 hPa | 0 mm | 0.89 m/s, 207° | 303 W/m² | - |
| 1777982681 | 15.56° C | 79% | 1007.8 hPa | 0 mm | 0.89 m/s, 189° | 219 W/m² | - |
| 1777982561 | 15.56° C | 80% | 1007.8 hPa | 0 mm | 0.89 m/s, 171° | 288 W/m² | - |
| 1777982441 | 15.56° C | 80% | 1007.9 hPa | 0 mm | 0.89 m/s, 152° | 246 W/m² | - |
| 1777982322 | 15° C | 82% | 1007.9 hPa | 0 mm | 0.89 m/s, 187° | 290 W/m² | - |
| 1777982201 | 15° C | 82% | 1007.9 hPa | 0 mm | 0.89 m/s, 171° | 236 W/m² | - |
| 1777982081 | 15° C | 83% | 1007.9 hPa | 0 mm | 0.89 m/s, 179° | 190 W/m² | - |
| 1777981961 | 14.44° C | 84% | 1008 hPa | 0 mm | 0.89 m/s, 174° | 247 W/m² | - |
| 1777981841 | 14.44° C | 84% | 1007.9 hPa | 0 mm | 0.89 m/s, 206° | 203 W/m² | - |
| 1777981722 | 14.44° C | 85% | 1007.9 hPa | 0 mm | 0.89 m/s, 183° | 235 W/m² | - |
| 1777981601 | 14.44° C | 86% | 1007.8 hPa | 0 mm | 0.89 m/s, 183° | 254 W/m² | - |
| 1777981479 | 13.89° C | 87% | 1007.9 hPa | 0 mm | 0.89 m/s, 168° | 176 W/m² | - |
| 1777981359 | 13.89° C | 87% | 1007.8 hPa | 0 mm | 0.89 m/s, 180° | 91 W/m² | - |
| 1777981239 | 13.89° C | 88% | 1007.8 hPa | 0 mm | 0.45 m/s, 153° | 88 W/m² | - |
| 1777981115 | 13.89° C | 88% | 1007.9 hPa | 0 mm | 0.89 m/s, 123° | 98 W/m² | - |
| 1777980993 | 13.89° C | 88% | 1007.9 hPa | 0 mm | 0.89 m/s, 167° | 140 W/m² | - |
| 1777980906 | 13.89° C | 89% | 1008 hPa | 0 mm | 0.89 m/s, 177° | 97 W/m² | - |
| 1777980753 | 13.33° C | 89% | 1008 hPa | 0 mm | 0.89 m/s, 189° | 93 W/m² | - |
| 1777980633 | 13.33° C | 89% | 1008.1 hPa | 0 mm | 0.89 m/s, 163° | 98 W/m² | - |
| 1777980513 | 13.33° C | 90% | 1008.1 hPa | 0 mm | 0.89 m/s, 201° | 117 W/m² | - |
| 1777980393 | 13.33° C | 90% | 1008 hPa | 0 mm | 0.89 m/s, 178° | 155 W/m² | - |
* Rain latest hour (hover to see other rain measurements)
** Current wind speed in m/s (hover to see current wind gust speed)